Regional Weather Roundup
Issued by NWS Albany, NY

Home | Current Version | Previous Version | Text Only | Print | Product List | Glossary On
Versions: 1 2 3 4 5 6 7 8 9 10 11 12 13 14 15 16 17 18 19 20 21 22 23 24 25 26 27
000
ASUS41 KALY 152310
RWRALY

NEW YORK STATE HOURLY WEATHER ROUNDUP
NATIONAL WEATHER SERVICE ALBANY NY
600 PM EST SUN JAN 15 2017

NOTE: "FAIR" INDICATES FEW OR NO CLOUDS BELOW 12,000 FEET WITH NO
SIGNIFICANT WEATHER AND/OR NO OBSTRUCTIONS TO VISIBILITY.

NYZ032-033-038>043-046>054-057>066-NYZ062>081-082-084-160000-
EAST


CITY           SKY/WX    TMP DP  RH WIND       PRES   REMARKS
ALBANY         CLEAR     28  14  55 W7        30.37R WCI  21
GLENS FALLS    CLEAR     27  15  61 E7        30.35R WCI  19
POUGHKEEPSIE   CLEAR     29  19  66 CALM      30.34R
NEWBURGH       CLEAR     32  21  64 W7        30.34R WCI  26
MONTGOMERY     CLEAR     28  19  69 SW6       30.33R WCI  22
WHITE PLAINS   CLEAR     33  18  53 W5        30.33R WCI  29
ISLIP          PTCLDY    28  22  78 W5        30.35R WCI  23
NEW YORK CITY  PTCLDY    39  22  50 NW12      30.37R WCI  32
CENTRAL PARK   CLEAR     37  20  50 CALM      30.38R
$$

NYZ005>009-017-018-044>046-055-056-160000-
CENTRAL


CITY           SKY/WX    TMP DP  RH WIND       PRES   REMARKS
FULTON         CLOUDY    29  21  72 SW3       30.39R
SYRACUSE       MOCLDY    28  20  71 CALM      30.38R
ROME           CLEAR     27  18  69 W7        30.40R WCI  19
ELMIRA         CLEAR     25  15  66 CALM      30.37R
BINGHAMTON     CLOUDY    25  17  72 NW5       30.31R WCI  19
MONTICELLO     CLEAR     25  16  68 W9        30.32R WCI  15
$$

NYZ026>034-041>043-087-160000-
NORTH


CITY           SKY/WX    TMP DP  RH WIND       PRES   REMARKS
WATERTOWN      CLEAR     22  16  78 SW3       30.39R
FORT DRUM      NOT AVBL
OGDENSBURG     FAIR      19  15  82 CALM      30.38S
MASSENA        PTCLDY    19  10  68 CALM      30.41S
SARANAC LAKE   CLEAR     13   6  74 CALM      30.26R
PLATTSBURGH    CLOUDY    20   7  57 N7        30.40R WCI  11
$$

NYZ001>004-010>016-019>021-085-160000-
WEST


CITY           SKY/WX    TMP DP  RH WIND       PRES   REMARKS
NIAGARA FALLS  PTCLDY    28  19  69 SW6       30.37S WCI  22
BUFFALO        PTCLDY    27  19  72 SW5       30.37S WCI  22
DUNKIRK        CLEAR     24  19  81 CALM      30.39R
JAMESTOWN      CLEAR     27  18  69 N5        30.30S WCI  21
WELLSVILLE     CLEAR     25  16  68 CALM      30.29S
ROCHESTER      CLOUDY    31  19  61 W6        30.39R WCI  25
PENN YAN       CLOUDY    29  16  58 W5        30.37R WCI  24
$$

             KEY
       WCI = WIND CHILL INDEX
       VSB = VISIBILITY
       HX  = HEAT INDEX
$$




USA.gov is the U.S. government's official web portal to all federal, state and local government web resources and services.